Daggett-Barstow, CA

9:57 PM PDT on July 20, 2017 (GMT -0700)
Barstow-Daggett

Weather History for KDAG - May, 2009

Change the Weather History Date:

Sunday, May 10, 2009

  Actual Average Record
Temperature  
Mean Temperature 81 °F 72 °F  
Max Temperature 97 °F 87 °F 100 °F (1960)
Min Temperature 66 °F 58 °F 44 °F (1949)
Degree Days  
Heating Degree Days 0    
Cooling Degree Days 16    
Growing Degree Days 31 (Base 50)    
Moisture  
Dew Point 30 °F    
Average Humidity 17    
Maximum Humidity 36    
Minimum Humidity 7    
Precipitation  
Precipitation 0.00 in 0.00 in 0.09 in (1958)
Month to date precipitation 0.02  
Year to date precipitation 1.95  
Sea Level Pressure  
Sea Level Pressure 29.76 in    
Wind  
Wind Speed 15 mph (West)    
Max Wind Speed 25 mph    
Max Gust Speed 31 mph    
Visibility 10 miles    
Events      
T = Trace of Precipitation, MM = Missing Value Source: NWS Daily Summary

Daily Weather History Graph

Daily Weather History Graph

Search for Another Location

Airport or City:

Trip Planner

Search our weather history database for the weather conditions in past years. The results will help you decide how hot, cold, wet, or windy it might be!

Date:

Astronomy

May. 10, 2009 Rise Set
Actual Time 5:47 AM PDT 7:39 PM PDT
Civil Twilight 5:20 AM PDT 8:07 PM PDT
Nautical Twilight 4:46 AM PDT 8:41 PM PDT
Astronomical Twilight 4:10 AM PDT 9:17 PM PDT
Moon 9:38 PM PDT (5/10) 6:28 AM PDT (5/10)
Length of Visible Light 14h 47m
Length of Day
13h 52m
Full, 97% of the Moon is Illuminated
May 10
Full
May 17
Last Quarter
May 24
New
May 30
First Quarter
Jun 7
Full

Hourly Weather History & Observations

Time (PDT) Temp. Dew Point Humidity Pressure Visibility Wind Dir Wind Speed Gust Speed Precip Events Conditions
12:51 AM 77.0 °F 25.0 °F 15% 29.72 in 10.0 mi WSW 21.9 mph - N/A   Clear
1:51 AM 75.9 °F 28.0 °F 17% 29.72 in 10.0 mi SW 25.3 mph 31.1 mph N/A   Clear
2:51 AM 75.0 °F 30.0 °F 19% 29.72 in 10.0 mi SW 19.6 mph - N/A   Clear
3:51 AM 73.0 °F 37.0 °F 27% 29.74 in 10.0 mi West 23.0 mph 27.6 mph N/A   Clear
4:51 AM 68.0 °F 39.0 °F 35% 29.76 in 10.0 mi WNW 15.0 mph - N/A   Clear
5:51 AM 66.9 °F 39.0 °F 36% 29.78 in 10.0 mi WNW 15.0 mph - N/A   Clear
6:51 AM 68.0 °F 39.0 °F 35% 29.81 in 10.0 mi WNW 12.7 mph - N/A   Clear
7:51 AM 72.0 °F 37.0 °F 28% 29.83 in 10.0 mi WNW 12.7 mph - N/A   Clear
8:51 AM 78.1 °F 35.1 °F 21% 29.83 in 10.0 mi WNW 12.7 mph - N/A   Clear
9:51 AM 82.0 °F 34.0 °F 18% 29.83 in 10.0 mi NW 11.5 mph - N/A   Clear
10:51 AM 86.0 °F 30.9 °F 14% 29.82 in 10.0 mi Variable 6.9 mph - N/A   Clear
11:51 AM 89.1 °F 30.0 °F 12% 29.81 in 10.0 mi Calm Calm - N/A   Clear
12:51 PM 91.0 °F 27.0 °F 10% 29.78 in 10.0 mi East 6.9 mph - N/A   Clear
1:51 PM 93.0 °F 25.0 °F 9% 29.76 in 10.0 mi Variable 4.6 mph - N/A   Clear
2:51 PM 93.9 °F 23.0 °F 8% 29.74 in 10.0 mi East 3.5 mph - N/A   Clear
3:51 PM 96.1 °F 23.0 °F 7% 29.71 in 10.0 mi Variable 4.6 mph - N/A   Clear
4:51 PM 96.1 °F 21.9 °F 7% 29.69 in 10.0 mi NNW 6.9 mph - N/A   Clear
5:51 PM 96.1 °F 21.9 °F 7% 29.68 in 10.0 mi Calm Calm - N/A   Clear
6:51 PM 95.0 °F 24.1 °F 8% 29.68 in 10.0 mi NW 8.1 mph - N/A   Clear
7:51 PM 90.0 °F 28.9 °F 11% 29.70 in 10.0 mi West 23.0 mph - N/A   Clear
8:51 PM 84.9 °F 30.9 °F 14% 29.74 in 10.0 mi WSW 21.9 mph - N/A   Clear
9:51 PM 82.0 °F 28.9 °F 14% 29.76 in 10.0 mi West 10.4 mph - N/A   Clear
10:51 PM 79.0 °F 28.9 °F 16% 29.77 in 10.0 mi West 15.0 mph 20.7 mph N/A   Clear
11:51 PM 78.1 °F 34.0 °F 20% 29.77 in 10.0 mi WSW 10.4 mph - N/A   Clear